FW6154 Weather Reports


time (UTC)temp
F
wind
direction
speed
knots
gust
knots
rain 1hr
in
rain 24hr
in
rain mn
in
humidity
%
barometer
mb
20260505121751 56 113 0.0 0.0 0.00 0.00 0.00 76 1014.6
20260505121240 56 135 0.0 0.0 0.00 0.00 0.00 75 1014.6
20260505120731 56 225 0.0 0.0 0.00 0.00 0.00 74 1014.5
20260505120220 56 225 0.0 0.0 0.00 0.00 0.00 74 1014.7
20260505115710 57 113 0.0 0.0 0.00 0.00 0.00 73 1014.6
20260505115200 57 203 0.0 0.0 0.00 0.00 0.00 72 1014.5
20260505114649 56 158 0.0 0.0 0.00 0.00 0.00 74 1014.2
20260505114139 56 113 0.0 0.0 0.00 0.00 0.00 74 1013.8
20260505113629 56 113 0.0 0.0 0.00 0.00 0.00 73 1013.9
20260505113119 57 113 0.0 0.0 0.00 0.00 0.00 72 1014.3
20260505112059 58 203 0.0 0.0 0.00 0.00 0.00 68 1014.1
20260505111548 58 270 0.0 0.0 0.00 0.00 0.00 68 1013.9
20260505111039 57 135 0.0 0.0 0.00 0.00 0.00 70 1014.3
20260505101857 56 113 0.0 0.0 0.00 0.00 0.00 71 1013.2
20260505101348 57 90 0.0 0.0 0.00 0.00 0.00 68 1013.1
20260505100837 58 90 0.0 0.0 0.00 0.00 0.00 67 1013.0
20260505100328 56 68 0.0 0.0 0.00 0.00 0.00 70 1013.0
20260505095817 56 293 0.0 0.0 0.00 0.00 0.00 70 1013.1
20260505094758 57 113 0.0 0.0 0.00 0.00 0.00 68 1012.7
20260505094247 57 45 0.0 0.0 0.00 0.00 0.00 68 1012.6
20260505093738 58 135 0.0 0.0 0.00 0.00 0.00 67 1012.6
20260505093228 58 68 0.0 0.0 0.00 0.00 0.00 64 1012.2
20260505092716 58 113 0.0 0.0 0.00 0.00 0.00 66 1012.9
20260505092206 58 45 0.0 0.0 0.00 0.00 0.00 65 1012.7
20260505091656 58 90 0.0 0.0 0.00 0.00 0.00 65 1012.7
20260505090636 59 248 0.0 0.0 0.00 0.00 0.00 63 1012.7
20260505090126 58 45 0.0 0.0 0.00 0.00 0.00 63 1012.6
20260505084046 57 270 0.0 0.0 0.00 0.00 0.00 66 1012.6
20260505083535 57 270 0.0 0.0 0.00 0.00 0.00 65 1012.7
20260505083034 56 293 0.0 0.0 0.00 0.00 0.00 67 1012.4
20260505082515 56 135 0.0 0.0 0.00 0.00 0.00 67 1011.8
20260505082005 57 68 0.0 0.0 0.00 0.00 0.00 64 1011.8
20260505081458 57 113 0.0 0.0 0.00 0.00 0.00 64 1012.0
20260505080944 56 68 0.0 0.0 0.00 0.00 0.00 64 1011.9
20260505075925 57 90 0.0 0.0 0.00 0.00 0.00 61 1012.2
20260505075415 56 0 0.0 0.0 0.00 0.00 0.00 62 1012.3
20260505074904 56 90 0.0 0.0 0.00 0.00 0.00 62 1012.4
20260505074354 57 68 0.0 0.0 0.00 0.00 0.00 59 1012.6
20260505073844 57 90 0.0 0.0 0.00 0.00 0.00 58 1012.7
20260505073334 58 113 0.0 0.0 0.00 0.00 0.00 56 1013.1
20260505072824 58 270 0.0 0.0 0.00 0.00 0.00 56 1013.0
20260505072313 57 68 0.0 0.0 0.00 0.00 0.00 57 1012.8
20260505071804 56 23 0.0 0.0 0.00 0.00 0.00 59 1013.0
20260505071253 56 248 0.0 0.0 0.00 0.00 0.00 61 1012.8
20260505070744 56 158 0.0 0.0 0.00 0.00 0.00 60 1012.6
20260505065723 56 90 0.0 0.0 0.00 0.00 0.00 58 1012.7
20260505065214 56 113 0.0 0.0 0.00 0.00 0.00 59 1012.8
20260505064703 57 23 0.0 0.0 0.00 0.00 0.00 57 1012.8
20260505064154 57 45 0.0 0.0 0.00 0.00 0.00 57 1012.6
20260505062112 58 90 0.0 0.0 0.00 0.00 0.00 55 1012.8
20260505061602 58 225 0.0 0.0 0.00 0.00 0.00 53 1012.6
20260505061052 59 225 0.0 0.0 0.00 0.00 0.00 53 1012.4
20260505060542 60 248 0.0 0.0 0.00 0.00 0.00 50 1012.6
20260505060032 60 248 0.0 0.0 0.00 0.00 0.00 49 1012.6
20260505055521 60 248 0.0 0.0 0.00 0.00 0.00 50 1012.4
20260505055011 60 293 0.0 0.0 0.00 0.00 0.00 50 1012.2
20260505054501 60 293 0.0 0.0 0.00 0.00 0.00 50 1012.6
20260505053951 59 270 0.0 0.0 0.00 0.00 0.00 50 1012.6
20260505053441 59 293 0.0 0.0 0.00 0.00 0.00 51 1012.1
20260505052932 56 90 0.0 0.0 0.00 0.00 0.00 58 1012.1
20260505052421 57 90 0.0 0.0 0.00 0.00 0.00 56 1011.8
20260505051911 58 90 0.0 0.0 0.00 0.00 0.00 55 1012.0
20260505051400 58 90 0.0 0.0 0.00 0.00 0.00 54 1011.9
20260505050851 58 68 0.0 0.0 0.00 0.00 0.00 51 1011.9
20260505050342 57 68 0.0 0.0 0.00 0.00 0.00 54 1011.9
20260505041709 55 68 0.0 0.0 0.00 0.00 0.00 63 1012.1
20260505041201 55 90 0.0 0.0 0.00 0.00 0.00 64 1012.3
20260505040649 55 68 0.0 0.0 0.00 0.00 0.00 64 1012.2
20260505040140 55 68 0.0 0.0 0.00 0.00 0.00 65 1012.2
20260505035630 55 68 0.0 0.0 0.00 0.00 0.00 65 1012.3
20260505035119 55 90 0.0 0.0 0.00 0.00 0.00 64 1012.2
20260505034609 55 248 0.0 0.0 0.00 0.00 0.00 66 1012.2
20260505034059 55 270 0.0 0.0 0.00 0.00 0.00 65 1012.2
20260505032018 55 135 0.0 0.0 0.00 0.00 0.00 63 1012.3
20260505031509 56 90 0.0 0.0 0.00 0.00 0.00 62 1012.0
20260505030958 56 90 0.0 0.0 0.00 0.00 0.00 59 1012.3
20260505030448 56 225 0.0 0.0 0.00 0.00 0.00 59 1012.4
20260505025940 56 338 0.0 0.0 0.00 0.00 0.00 56 1012.3
20260505024925 55 113 0.0 0.0 0.00 0.00 0.00 63 1012.3
20260505024413 55 68 0.0 0.0 0.00 0.00 0.00 62 1012.0
20260505023859 55 68 0.0 0.0 0.00 0.00 0.00 61 1011.9
20260505023351 55 90 0.0 0.0 0.00 0.00 0.00 61 1011.8
20260505022845 55 45 0.0 0.0 0.00 0.00 0.00 63 1011.8
20260505022343 55 45 0.0 0.0 0.00 0.00 0.00 63 1011.9
20260505021818 56 23 0.0 0.0 0.00 0.00 0.00 62 1011.9
20260505021310 56 90 0.0 0.0 0.00 0.00 0.00 60 1012.1
20260505020247 57 68 0.0 0.0 0.00 0.00 0.00 56 1011.9
20260505015745 57 68 0.0 0.0 0.00 0.00 0.00 54 1011.8
20260505015234 57 68 0.0 0.0 0.00 0.00 0.00 54 1011.8
20260505014718 57 338 0.0 0.0 0.00 0.00 0.00 56 1011.9
20260505014210 57 338 0.0 0.0 0.00 0.00 0.00 54 1011.7
20260505013713 57 90 0.0 0.0 0.00 0.00 0.00 53 1011.3
20260505013152 58 45 0.0 0.0 0.00 0.00 0.00 53 1011.2
20260505012637 57 68 0.0 0.0 0.00 0.00 0.00 53 1011.0
20260505012131 57 270 0.0 0.0 0.00 0.00 0.00 55 1011.1
20260505011616 57 270 0.0 0.0 0.00 0.00 0.00 54 1011.3
20260505011108 57 248 0.0 0.0 0.00 0.00 0.00 54 1011.2
20260505010046 58 68 0.0 0.0 0.00 0.00 0.00 52 1011.1
20260505005539 58 90 0.0 0.0 0.00 0.00 0.00 53 1011.5
20260505004516 58 68 0.0 0.0 0.00 0.00 0.00 51 1011.2
20260505004006 58 90 0.0 0.0 0.00 0.00 0.00 51 1011.1
20260505003457 58 23 0.0 0.0 0.00 0.00 0.00 50 1011.1
20260505002945 58 23 0.0 0.0 0.00 0.00 0.00 50 1011.4
20260505002435 59 45 0.0 0.0 0.00 0.00 0.00 50 1011.4
20260505001925 59 45 0.0 0.0 0.00 0.00 0.00 49 1011.7
20260505001421 60 45 0.0 0.0 0.00 0.00 0.00 46 1011.7
20260505000909 60 270 0.0 0.0 0.00 0.00 0.00 44 1011.4
20260505000406 61 293 0.0 0.0 0.00 0.00 0.00 43 1011.5
20260504235844 61 293 0.0 0.0 0.00 0.00 0.00 41 1011.7
20260504235334 61 293 0.0 0.0 0.00 0.00 0.00 43 1011.9
20260504234825 60 293 0.0 0.0 0.00 0.00 0.00 44 1011.8
20260504234314 60 270 0.0 0.0 0.00 0.00 0.00 45 1011.6
20260504233804 60 45 0.0 0.0 0.00 0.00 0.00 44 1011.6
20260504233254 60 90 0.0 0.0 0.00 0.00 0.00 46 1011.7
20260504232744 61 90 0.0 0.0 0.00 0.00 0.00 42 1011.4
20260504232234 60 68 0.0 0.0 0.00 0.00 0.00 45 1011.4
20260504231726 60 68 0.0 0.0 0.00 0.00 0.00 45 1011.5
20260504231213 61 45 0.0 0.0 0.00 0.00 0.00 44 1011.1
20260504230703 60 338 0.0 0.0 0.00 0.00 0.00 44 1011.1
20260504230153 61 338 0.0 0.0 0.00 0.00 0.00 44 1010.7
20260504225646 62 270 0.0 0.0 0.00 0.00 0.00 41 1010.8
20260504225133 63 270 0.0 0.0 0.00 0.00 0.00 39 1010.5
20260504224112 61 315 0.0 0.0 0.00 0.00 0.00 44 1010.0
20260504223602 61 293 0.0 0.0 0.00 0.00 0.00 44 1009.7
20260504222542 62 45 0.0 0.0 0.00 0.00 0.00 40 1010.0
20260504222032 62 90 0.0 0.0 0.00 0.00 0.00 41 1010.2
20260504221522 62 90 0.0 0.0 0.00 0.00 0.00 42 1010.3
20260504220501 61 45 0.0 0.0 0.00 0.00 0.00 43 1010.8
20260504215442 63 23 0.0 0.0 0.00 0.00 0.00 41 1010.5
20260504214931 62 90 0.0 0.0 0.00 0.00 0.00 40 1010.5
20260504214421 62 338 0.0 0.0 0.00 0.00 0.00 42 1010.8
20260504213912 62 248 0.0 0.0 0.00 0.00 0.00 41 1010.6
20260504213401 63 90 0.0 0.0 0.00 0.00 0.00 38 1010.5
20260504212850 64 68 0.0 0.0 0.00 0.00 0.00 38 1010.4
20260504211831 65 225 0.0 0.0 0.00 0.00 0.00 31 1010.2
20260504211320 65 225 0.0 0.0 0.00 0.00 0.00 32 1010.0
20260504210810 66 180 0.0 0.0 0.00 0.00 0.00 31 1009.9
20260504210300 66 248 0.0 0.0 0.00 0.00 0.00 30 1009.5
20260504205240 66 270 0.0 1.7 0.00 0.00 0.00 32 1009.5
20260504204730 65 248 0.0 0.0 0.00 0.00 0.00 34 1009.4
20260504204219 66 203 0.0 0.0 0.00 0.00 0.00 32 1009.6
20260504203713 66 225 0.0 0.0 0.00 0.00 0.00 32 1009.7
20260504203159 66 248 0.0 0.0 0.00 0.00 0.00 34 1009.7
20260504202139 67 270 0.0 0.0 0.00 0.00 0.00 35 1009.9
20260504201629 68 338 0.0 0.0 0.00 0.00 0.00 33 1010.1
20260504201119 68 270 0.0 0.0 0.00 0.00 0.00 31 1010.0
20260504195548 68 270 0.0 0.0 0.00 0.00 0.00 33 1009.9
20260504195038 69 293 0.0 0.0 0.00 0.00 0.00 33 1009.8
20260504194020 69 293 0.0 0.0 0.00 0.00 0.00 34 1009.9
20260504192958 68 225 0.0 0.0 0.00 0.00 0.00 31 1009.7
20260504192450 69 293 0.0 0.0 0.00 0.00 0.00 32 1009.6
20260504191938 70 338 0.0 0.0 0.00 0.00 0.00 33 1009.8
20260504191428 70 293 0.0 0.0 0.00 0.00 0.00 32 1009.8
20260504190919 69 225 0.0 0.0 0.00 0.00 0.00 32 1009.7
20260504190410 70 270 0.0 0.0 0.00 0.00 0.00 31 1009.8
20260504185857 71 270 0.0 0.0 0.00 0.00 0.00 30 1009.6
20260504183817 71 203 0.0 0.0 0.00 0.00 0.00 31 1009.6
20260504183308 72 293 0.0 0.0 0.00 0.00 0.00 29 1009.5
20260504182758 74 315 0.0 0.0 0.00 0.00 0.00 31 1009.6
20260504182247 71 270 0.0 0.0 0.00 0.00 0.00 26 1009.6
20260504181227 71 248 0.0 0.0 0.00 0.00 0.00 28 1009.7
20260504180716 71 315 0.0 0.0 0.00 0.00 0.00 28 1010.0
20260504180207 71 338 0.0 0.0 0.00 0.00 0.00 30 1009.6
20260504175656 71 315 0.0 0.0 0.00 0.00 0.00 31 1009.7
20260504175146 72 158 0.0 0.0 0.00 0.00 0.00 32 1010.0
20260504174635 72 338 0.0 0.0 0.00 0.00 0.00 30 1009.8
20260504174125 72 270 0.0 0.0 0.00 0.00 0.00 34 1010.2
20260504172046 72 225 0.0 0.0 0.00 0.00 0.00 36 1010.2
20260504171536 73 248 0.0 0.0 0.00 0.00 0.00 38 1010.1
20260504171025 71 315 0.0 0.0 0.00 0.00 0.00 39 1010.3
20260504170514 73 315 0.0 0.0 0.00 0.00 0.00 39 1010.2
20260504160314 68 293 0.0 0.0 0.00 0.00 0.00 43 1010.8
20260504150623 68 315 0.0 0.0 0.00 0.00 0.00 43 1011.0
20260504150112 69 315 0.0 0.0 0.00 0.00 0.00 44 1011.2
20260504140932 68 203 0.0 0.0 0.00 0.00 0.00 44 1011.3
20260504140422 68 270 0.0 0.0 0.00 0.00 0.00 44 1011.4
20260504130730 66 68 0.0 0.0 0.00 0.00 0.00 49 1011.4
20260504130220 65 45 0.0 0.0 0.00 0.00 0.00 48 1011.2